When you browse on this site, cookies collect data to enhance your experience and personalize the content and advertising you see.
Visit our Privacy Policy to learn more. By continuing to use the site, you agree to this use of cookies and data.
  • In Slovakia
  • List of Countries
  • For 7 days
  • Water Temperature
  • Satellite Maps
  • Weather Map
  • Weather Widgets
  • user-avatar
    Login

    Hourly Weather Bilgady

    Today, 26 April, Friday

    Time Temperature Precipitation Wind Pressure Humidity
    00:00 +11°C° 0 mm 3 mps 752 mmHg 54%
    01:00 +11°C° 0 mm 3 mps 751 mmHg 53%
    02:00 +11°C° 0 mm 3 mps 751 mmHg 51%
    03:00 +11°C° 0 mm 3 mps 750 mmHg 49%
    04:00 +12°C° 0 mm 3 mps 750 mmHg 50%
    05:00 +12°C° 0 mm 3 mps 750 mmHg 50%
    06:00 +12°C° 0 mm 3 mps 751 mmHg 51%
    07:00 +15°C° 0 mm 2 mps 750 mmHg 47%
    08:00 +17°C° 0 mm 2 mps 750 mmHg 44%
    09:00 +20°C° 0 mm 1 mps 750 mmHg 40%
    10:00 +20°C° 0 mm 2 mps 750 mmHg 40%
    11:00 +20°C° 0 mm 3 mps 750 mmHg 40%
    12:00 +21°C° 0 mm 4 mps 750 mmHg 40%
    13:00 +20°C° 0 mm 4 mps 749 mmHg 41%
    14:00 +20°C° 0 mm 4 mps 749 mmHg 42%
    15:00 +20°C° 0 mm 4 mps 749 mmHg 44%
    16:00 +19°C° 0 mm 4 mps 749 mmHg 48%
    17:00 +18°C° 0 mm 3 mps 749 mmHg 52%
    18:00 +17°C° 0 mm 3 mps 748 mmHg 56%
    19:00 +14°C° 0 mm 3 mps 748 mmHg 57%
    20:00 +14°C° 0 mm 2 mps 749 mmHg 59%
    21:00 +13°C° 0 mm 2 mps 749 mmHg 60%
    22:00 +13°C° 0 mm 2 mps 749 mmHg 58%
    23:00 +13°C° 0 mm 2 mps 748 mmHg 56%

    Tomorrow, 27 April, Saturday

    Time Temperature Precipitation Wind Pressure Humidity
    00:00 +13°C° 0 mm 2 mps 748 mmHg 54%
    01:00 +12°C° 0 mm 2 mps 748 mmHg 53%
    02:00 +12°C° 0 mm 2 mps 748 mmHg 52%
    03:00 +12°C° 0 mm 2 mps 748 mmHg 50%
    04:00 +12°C° 0 mm 2 mps 748 mmHg 50%
    05:00 +13°C° 0 mm 2 mps 748 mmHg 50%
    06:00 +13°C° 0 mm 2 mps 748 mmHg 50%
    07:00 +15°C° 0 mm 2 mps 748 mmHg 44%
    08:00 +17°C° 0 mm 2 mps 747 mmHg 37%
    09:00 +19°C° 0 mm 3 mps 747 mmHg 31%
    10:00 +20°C° 0 mm 3 mps 747 mmHg 31%
    11:00 +21°C° 0 mm 4 mps 747 mmHg 31%
    12:00 +21°C° 0 mm 5 mps 747 mmHg 31%
    13:00 +21°C° 0 mm 5 mps 746 mmHg 33%
    14:00 +21°C° 0 mm 5 mps 746 mmHg 35%
    15:00 +21°C° 0 mm 4 mps 745 mmHg 38%
    16:00 +20°C° 0 mm 4 mps 745 mmHg 44%
    17:00 +18°C° 0 mm 3 mps 745 mmHg 50%
    18:00 +17°C° 0 mm 3 mps 745 mmHg 57%
    19:00 +16°C° 0 mm 3 mps 745 mmHg 59%
    20:00 +14°C° 0 mm 3 mps 745 mmHg 60%
    21:00 +14°C° 0 mm 2 mps 745 mmHg 62%
    22:00 +13°C° 0 mm 3 mps 745 mmHg 60%
    23:00 +13°C° 0 mm 3 mps 745 mmHg 58%

    Day after tomorrow, 28 April, Sunday

    Time Temperature Precipitation Wind Pressure Humidity
    00:00 +12°C° 0 mm 3 mps 744 mmHg 56%
    01:00 +12°C° 0 mm 3 mps 744 mmHg 54%
    02:00 +12°C° 0 mm 3 mps 744 mmHg 52%
    03:00 +13°C° 0 mm 2 mps 743 mmHg 50%
    04:00 +13°C° 0 mm 2 mps 743 mmHg 50%
    05:00 +14°C° 0 mm 2 mps 743 mmHg 49%
    06:00 +14°C° 0 mm 2 mps 743 mmHg 48%
    07:00 +16°C° 0 mm 2 mps 743 mmHg 45%
    08:00 +18°C° 0 mm 2 mps 742 mmHg 42%
    09:00 +20°C° 0 mm 2 mps 742 mmHg 39%
    10:00 +20°C° 0 mm 2 mps 742 mmHg 41%
    11:00 +21°C° 0 mm 3 mps 742 mmHg 42%
    12:00 +21°C° 0 mm 3 mps 742 mmHg 43%
    13:00 +21°C° 0 mm 3 mps 741 mmHg 45%
    14:00 +20°C° 0 mm 3 mps 741 mmHg 48%
    15:00 +20°C° 0 mm 2 mps 741 mmHg 50%
    16:00 +19°C° 0.1 mm 2 mps 741 mmHg 54%
    17:00 +19°C° 0.1 mm 1 mps 741 mmHg 59%
    18:00 +19°C° 0.1 mm 1 mps 741 mmHg 64%
    19:00 +18°C° 0 mm 1 mps 741 mmHg 63%
    20:00 +18°C° 0 mm 1 mps 741 mmHg 61%
    21:00 +17°C° 0 mm 2 mps 742 mmHg 60%
    22:00 +16°C° 0 mm 1 mps 742 mmHg 59%
    23:00 +16°C° 0 mm 1 mps 742 mmHg 58%

    29 April, Monday

    Time Temperature Precipitation Wind Pressure Humidity
    00:00 +16°C° 0 mm 1 mps 741 mmHg 57%
    01:00 +15°C° 0 mm 1 mps 741 mmHg 56%
    02:00 +15°C° 0 mm 1 mps 741 mmHg 55%
    03:00 +15°C° 0 mm 2 mps 741 mmHg 54%
    04:00 +15°C° 0 mm 2 mps 741 mmHg 53%
    05:00 +15°C° 0 mm 2 mps 741 mmHg 52%
    06:00 +16°C° 0 mm 2 mps 741 mmHg 51%
    07:00 +18°C° 0 mm 2 mps 742 mmHg 47%
    08:00 +21°C° 0 mm 1 mps 742 mmHg 42%
    09:00 +22°C° 0 mm 1 mps 742 mmHg 38%
    10:00 +23°C° 0 mm 2 mps 742 mmHg 38%
    11:00 +24°C° 0 mm 2 mps 742 mmHg 38%
    12:00 +24°C° 0 mm 3 mps 742 mmHg 37%
    13:00 +24°C° 0 mm 3 mps 742 mmHg 39%
    14:00 +24°C° 0 mm 3 mps 742 mmHg 40%
    15:00 +22°C° 0 mm 3 mps 741 mmHg 41%
    16:00 +21°C° 0 mm 3 mps 742 mmHg 46%
    17:00 +20°C° 0 mm 3 mps 742 mmHg 50%
    18:00 +19°C° 0 mm 2 mps 742 mmHg 55%
    19:00 +18°C° 0 mm 2 mps 742 mmHg 58%
    20:00 +17°C° 0 mm 2 mps 742 mmHg 61%
    21:00 +16°C° 0 mm 2 mps 742 mmHg 64%
    22:00 +16°C° 0 mm 2 mps 742 mmHg 63%
    23:00 +16°C° 0 mm 2 mps 742 mmHg 61%

    30 April, Tuesday

    Time Temperature Precipitation Wind Pressure Humidity
    00:00 +16°C° 0 mm 2 mps 742 mmHg 60%
    01:00 +16°C° 0 mm 1 mps 742 mmHg 59%
    02:00 +16°C° 0 mm 1 mps 742 mmHg 57%
    03:00 +16°C° 0 mm 1 mps 742 mmHg 55%
    04:00 +16°C° 0 mm 1 mps 742 mmHg 55%
    05:00 +16°C° 0 mm 1 mps 742 mmHg 55%
    06:00 +18°C° 0 mm 1 mps 743 mmHg 55%
    07:00 +18°C° 0 mm 2 mps 743 mmHg 53%
    08:00 +19°C° 0 mm 2 mps 743 mmHg 51%
    09:00 +20°C° 0 mm 3 mps 743 mmHg 49%
    10:00 +20°C° 0 mm 3 mps 743 mmHg 51%
    11:00 +19°C° 0 mm 3 mps 743 mmHg 53%
    12:00 +19°C° 0 mm 3 mps 743 mmHg 56%
    13:00 +19°C° 0 mm 3 mps 743 mmHg 56%
    14:00 +19°C° 0 mm 3 mps 743 mmHg 57%
    15:00 +19°C° 0 mm 3 mps 743 mmHg 57%
    16:00 +18°C° 0 mm 2 mps 743 mmHg 62%
    17:00 +17°C° 0 mm 2 mps 743 mmHg 66%
    18:00 +16°C° 0 mm 1 mps 743 mmHg 70%
    19:00 +15°C° 0 mm 1 mps 743 mmHg 71%
    20:00 +15°C° 0 mm 1 mps 743 mmHg 71%
    21:00 +15°C° 0 mm 2 mps 743 mmHg 72%
    22:00 +14°C° 0 mm 2 mps 743 mmHg 71%
    23:00 +14°C° 0 mm 2 mps 742 mmHg 70%

    1 May, Wednesday

    Time Temperature Precipitation Wind Pressure Humidity
    00:00 +13°C° 0 mm 3 mps 742 mmHg 69%
    01:00 +13°C° 0 mm 3 mps 742 mmHg 67%
    02:00 +13°C° 0 mm 3 mps 742 mmHg 65%
    03:00 +13°C° 0 mm 3 mps 741 mmHg 63%
    04:00 +14°C° 0 mm 2 mps 741 mmHg 61%
    05:00 +15°C° 0 mm 2 mps 741 mmHg 60%
    06:00 +15°C° 0 mm 2 mps 741 mmHg 59%
    07:00 +17°C° 0 mm 2 mps 741 mmHg 55%
    08:00 +19°C° 0 mm 2 mps 741 mmHg 51%
    09:00 +20°C° 0 mm 2 mps 741 mmHg 48%
    10:00 +21°C° 0 mm 2 mps 740 mmHg 48%
    11:00 +22°C° 0 mm 3 mps 740 mmHg 49%
    12:00 +22°C° 0 mm 3 mps 739 mmHg 49%
    13:00 +23°C° 0.4 mm 2 mps 739 mmHg 51%
    14:00 +23°C° 0.4 mm 2 mps 739 mmHg 54%
    15:00 +23°C° 0.4 mm 2 mps 739 mmHg 56%
    16:00 +21°C° 0.5 mm 2 mps 739 mmHg 62%
    17:00 +20°C° 0.5 mm 2 mps 739 mmHg 68%
    18:00 +19°C° 0.5 mm 2 mps 739 mmHg 74%
    19:00 +18°C° 0 mm 2 mps 739 mmHg 74%
    20:00 +17°C° 0 mm 2 mps 739 mmHg 73%
    21:00 +16°C° 0 mm 2 mps 739 mmHg 73%
    22:00 +17°C° 0 mm 2 mps 739 mmHg 69%
    23:00 +18°C° 0 mm 1 mps 739 mmHg 64%
    Show more